Time,TemperatureF,DewpointF,PressureIn,WindDirection,WindDirectionDegrees,WindSpeedMPH,WindSpeedGustMPH,Humidity,HourlyPrecipIn,Conditions,Clouds,dailyrainin,SoftwareType,DateUTC
2013-05-14 00:07:00,39.8,29.0,30.12,South,178,0.0,-999.0,65,-99.99,,,0.00,weatherlink.com 1.10,2013-05-14 04:07:00,
2013-05-14 00:22:00,39.6,29.0,30.13,South,178,0.0,-999.0,66,-99.99,,,0.00,weatherlink.com 1.10,2013-05-14 04:22:00,
2013-05-14 00:37:00,39.3,29.0,30.12,South,178,0.0,-999.0,67,-99.99,,,0.00,weatherlink.com 1.10,2013-05-14 04:37:00,
2013-05-14 00:52:00,39.1,29.0,30.12,South,178,0.0,-999.0,68,-99.99,,,0.00,weatherlink.com 1.10,2013-05-14 04:52:00,
2013-05-14 01:07:00,38.8,30.0,30.12,South,178,0.0,-999.0,72,-99.99,,,0.00,weatherlink.com 1.10,2013-05-14 05:07:00,
2013-05-14 01:22:00,38.5,30.0,30.11,South,178,0.0,-999.0,71,-99.99,,,0.00,weatherlink.com 1.10,2013-05-14 05:22:00,
2013-05-14 01:37:00,38.3,29.0,30.12,South,178,0.0,-999.0,70,-99.99,,,0.00,weatherlink.com 1.10,2013-05-14 05:37:00,
2013-05-14 01:52:00,38.5,30.0,30.12,South,178,0.0,-999.0,71,-99.99,,,0.00,weatherlink.com 1.10,2013-05-14 05:52:00,
2013-05-14 02:07:00,38.3,30.0,30.11,South,178,0.0,-999.0,72,-99.99,,,0.00,weatherlink.com 1.10,2013-05-14 06:07:00,
2013-05-14 02:22:00,38.2,30.0,30.12,South,178,0.0,-999.0,71,-99.99,,,0.00,weatherlink.com 1.10,2013-05-14 06:22:00,
2013-05-14 02:37:00,37.6,30.0,30.12,South,178,0.0,-999.0,73,-99.99,,,0.00,weatherlink.com 1.10,2013-05-14 06:37:00,
2013-05-14 02:52:00,36.9,30.0,30.12,South,178,0.0,-999.0,75,-99.99,,,0.00,weatherlink.com 1.10,2013-05-14 06:52:00,
2013-05-14 03:07:00,36.3,30.0,30.13,South,178,0.0,-999.0,78,-99.99,,,0.00,weatherlink.com 1.10,2013-05-14 07:07:00,
2013-05-14 03:22:00,36.3,30.0,30.13,South,178,0.0,-999.0,78,-99.99,,,0.00,weatherlink.com 1.10,2013-05-14 07:22:00,
2013-05-14 03:37:00,36.8,30.0,30.13,South,178,0.0,-999.0,76,-99.99,,,0.00,weatherlink.com 1.10,2013-05-14 07:37:00,
2013-05-14 03:52:00,36.8,30.0,30.13,South,178,0.0,-999.0,77,-99.99,,,0.00,weatherlink.com 1.10,2013-05-14 07:52:00,
2013-05-14 04:07:00,36.6,30.0,30.13,South,178,0.0,-999.0,77,-99.99,,,0.00,weatherlink.com 1.10,2013-05-14 08:07:00,
2013-05-14 04:22:00,36.5,30.0,30.13,South,178,0.0,-999.0,78,-99.99,,,0.00,weatherlink.com 1.10,2013-05-14 08:22:00,
2013-05-14 04:37:00,36.3,30.0,30.15,South,178,0.0,-999.0,79,-99.99,,,0.00,weatherlink.com 1.10,2013-05-14 08:37:00,
2013-05-14 04:52:00,36.2,30.0,30.15,South,178,0.0,-999.0,79,-99.99,,,0.00,weatherlink.com 1.10,2013-05-14 08:52:00,
2013-05-14 05:07:00,35.8,30.0,30.15,South,178,0.0,-999.0,79,-99.99,,,0.00,weatherlink.com 1.10,2013-05-14 09:07:00,
2013-05-14 05:22:00,35.0,29.0,30.15,South,178,0.0,-999.0,80,-99.99,,,0.00,weatherlink.com 1.10,2013-05-14 09:22:00,
2013-05-14 05:37:00,34.3,29.0,30.15,South,178,0.0,-999.0,81,-99.99,,,0.00,weatherlink.com 1.10,2013-05-14 09:37:00,
2013-05-14 05:52:00,33.2,29.0,30.17,South,178,0.0,-999.0,84,-99.99,,,0.00,weatherlink.com 1.10,2013-05-14 09:52:00,
2013-05-14 06:07:00,32.8,29.0,30.17,South,178,0.0,-999.0,85,-99.99,,,0.00,weatherlink.com 1.10,2013-05-14 10:07:00,
2013-05-14 06:22:00,32.5,29.0,30.17,South,178,0.0,-999.0,86,-99.99,,,0.00,weatherlink.com 1.10,2013-05-14 10:22:00,
2013-05-14 06:37:00,32.9,29.0,30.19,South,178,0.0,-999.0,86,-99.99,,,0.00,weatherlink.com 1.10,2013-05-14 10:37:00,
2013-05-14 06:52:00,33.4,29.0,30.19,South,178,0.0,-999.0,85,-99.99,,,0.00,weatherlink.com 1.10,2013-05-14 10:52:00,
2013-05-14 07:07:00,33.5,30.0,30.20,South,178,0.0,-999.0,86,-99.99,,,0.00,weatherlink.com 1.10,2013-05-14 11:07:00,
2013-05-14 07:22:00,34.3,30.0,30.20,South,186,0.0,-999.0,84,-99.99,,,0.00,weatherlink.com 1.10,2013-05-14 11:22:00,
2013-05-14 07:37:00,36.0,31.0,30.20,South,186,0.0,-999.0,81,-99.99,,,0.00,weatherlink.com 1.10,2013-05-14 11:37:00,
2013-05-14 07:53:00,38.0,31.0,30.20,South,186,0.0,-999.0,75,-99.99,,,0.00,weatherlink.com 1.10,2013-05-14 11:53:00,
2013-05-14 08:08:00,40.3,32.0,30.19,SSW,202,0.0,-999.0,72,-99.99,,,0.00,weatherlink.com 1.10,2013-05-14 12:08:00,
2013-05-14 08:23:00,42.9,32.0,30.19,West,265,0.0,-999.0,65,-99.99,,,0.00,weatherlink.com 1.10,2013-05-14 12:23:00,
2013-05-14 08:38:00,45.8,32.0,30.18,SW,216,1.0,-999.0,59,-99.99,,,0.00,weatherlink.com 1.10,2013-05-14 12:38:00,
2013-05-14 08:53:00,48.0,33.0,30.16,South,184,0.0,-999.0,57,-99.99,,,0.00,weatherlink.com 1.10,2013-05-14 12:53:00,
2013-05-14 09:08:00,49.2,33.0,30.16,ENE,62,0.0,-999.0,54,-99.99,,,0.00,weatherlink.com 1.10,2013-05-14 13:08:00,
2013-05-14 09:23:00,50.7,32.0,30.16,SSE,158,3.0,-999.0,50,-99.99,,,0.00,weatherlink.com 1.10,2013-05-14 13:23:00,
2013-05-14 09:38:00,52.5,32.0,30.16,South,189,1.0,-999.0,46,-99.99,,,0.00,weatherlink.com 1.10,2013-05-14 13:38:00,
2013-05-14 09:53:00,54.5,33.0,30.16,South,191,2.0,-999.0,45,-99.99,,,0.00,weatherlink.com 1.10,2013-05-14 13:53:00,
2013-05-14 10:08:00,56.0,32.0,30.15,SSE,158,0.0,-999.0,40,-99.99,,,0.00,weatherlink.com 1.10,2013-05-14 14:08:00,
2013-05-14 10:23:00,57.0,33.0,30.14,SSW,208,0.0,-999.0,41,-99.99,,,0.00,weatherlink.com 1.10,2013-05-14 14:23:00,
2013-05-14 10:38:00,58.3,34.0,30.14,SSE,150,0.0,-999.0,40,-99.99,,,0.00,weatherlink.com 1.10,2013-05-14 14:38:00,
2013-05-14 10:53:00,58.4,33.0,30.15,WSW,239,0.0,-999.0,38,-99.99,,,0.00,weatherlink.com 1.10,2013-05-14 14:53:00,
2013-05-14 11:08:00,59.2,31.0,30.15,SSE,154,0.0,-999.0,35,-99.99,,,0.00,weatherlink.com 1.10,2013-05-14 15:08:00,
2013-05-14 11:23:00,60.5,32.0,30.15,West,263,2.0,-999.0,34,-99.99,,,0.00,weatherlink.com 1.10,2013-05-14 15:23:00,
2013-05-14 11:38:00,61.0,31.0,30.14,WNW,291,1.0,-999.0,32,-99.99,,,0.00,weatherlink.com 1.10,2013-05-14 15:38:00,
2013-05-14 11:53:00,62.1,32.0,30.14,SSE,168,3.0,-999.0,32,-99.99,,,0.00,weatherlink.com 1.10,2013-05-14 15:53:00,
2013-05-14 12:08:00,62.7,35.0,30.12,SSE,164,1.0,-999.0,35,-99.99,,,0.00,weatherlink.com 1.10,2013-05-14 16:08:00,
2013-05-14 12:24:00,63.9,35.0,30.12,SE,136,0.0,-999.0,34,-99.99,,,0.00,weatherlink.com 1.10,2013-05-14 16:24:00,
2013-05-14 12:39:00,65.2,39.0,30.12,ENE,78,0.0,-999.0,38,-99.99,,,0.00,weatherlink.com 1.10,2013-05-14 16:39:00,
2013-05-14 12:54:00,65.5,36.0,30.10,WSW,240,0.0,-999.0,34,-99.99,,,0.00,weatherlink.com 1.10,2013-05-14 16:54:00,
2013-05-14 13:09:00,66.3,38.0,30.10,NW,325,1.0,-999.0,35,-99.99,,,0.00,weatherlink.com 1.10,2013-05-14 17:09:00,
2013-05-14 13:24:00,67.4,41.0,30.09,North,11,0.0,-999.0,39,-99.99,,,0.00,weatherlink.com 1.10,2013-05-14 17:24:00,
2013-05-14 13:39:00,67.8,38.0,30.08,WNW,296,0.0,-999.0,34,-99.99,,,0.00,weatherlink.com 1.10,2013-05-14 17:39:00,
2013-05-14 13:54:00,66.3,39.0,30.08,SW,224,2.0,-999.0,37,-99.99,,,0.00,weatherlink.com 1.10,2013-05-14 17:54:00,
2013-05-14 14:09:00,66.6,41.0,30.08,South,182,0.0,-999.0,40,-99.99,,,0.00,weatherlink.com 1.10,2013-05-14 18:09:00,
2013-05-14 14:24:00,67.3,43.0,30.07,SSW,198,0.0,-999.0,42,-99.99,,,0.00,weatherlink.com 1.10,2013-05-14 18:24:00,
2013-05-14 14:39:00,67.9,42.0,30.06,North,0,0.0,-999.0,39,-99.99,,,0.00,weatherlink.com 1.10,2013-05-14 18:39:00,
2013-05-14 14:54:00,67.6,44.0,30.06,ENE,76,0.0,-999.0,42,-99.99,,,0.00,weatherlink.com 1.10,2013-05-14 18:54:00,
2013-05-14 15:09:00,66.3,41.0,30.05,SE,138,0.0,-999.0,40,-99.99,,,0.00,weatherlink.com 1.10,2013-05-14 19:09:00,
2013-05-14 15:24:00,66.0,43.0,30.05,NE,42,1.0,-999.0,44,-99.99,,,0.00,weatherlink.com 1.10,2013-05-14 19:24:00,
2013-05-14 15:39:00,67.1,40.0,30.04,NNW,346,1.0,-999.0,37,-99.99,,,0.00,weatherlink.com 1.10,2013-05-14 19:39:00,
2013-05-14 15:54:00,66.6,39.0,30.03,ENE,68,0.0,-999.0,36,-99.99,,,0.00,weatherlink.com 1.10,2013-05-14 19:54:00,
2013-05-14 16:09:00,67.3,42.0,30.02,SSE,161,0.0,-999.0,40,-99.99,,,0.00,weatherlink.com 1.10,2013-05-14 20:09:00,
2013-05-14 16:24:00,68.1,41.0,30.02,SSW,192,2.0,-999.0,38,-99.99,,,0.00,weatherlink.com 1.10,2013-05-14 20:24:00,
2013-05-14 16:39:00,68.3,41.0,30.02,West,271,4.0,-999.0,37,-99.99,,,0.00,weatherlink.com 1.10,2013-05-14 20:39:00,
2013-05-14 16:54:00,68.3,42.0,30.02,SSE,158,0.0,-999.0,39,-99.99,,,0.00,weatherlink.com 1.10,2013-05-14 20:54:00,
2013-05-14 17:09:00,68.6,43.0,30.02,SSW,192,5.0,-999.0,39,-99.99,,,0.00,weatherlink.com 1.10,2013-05-14 21:09:00,
2013-05-14 17:39:00,69.1,43.0,30.02,SSW,192,0.0,-999.0,39,-99.99,,,0.00,weatherlink.com 1.10,2013-05-14 21:39:00,
2013-05-14 17:54:00,69.3,43.0,30.02,South,188,0.0,-999.0,39,-99.99,,,0.00,weatherlink.com 1.10,2013-05-14 21:54:00,
2013-05-14 18:09:00,68.1,43.0,30.03,WSW,244,0.0,-999.0,41,-99.99,,,0.00,weatherlink.com 1.10,2013-05-14 22:09:00,
2013-05-14 18:24:00,66.8,43.0,30.03,SSW,202,0.0,-999.0,43,-99.99,,,0.00,weatherlink.com 1.10,2013-05-14 22:24:00,
2013-05-14 18:39:00,65.3,44.0,30.03,SW,236,0.0,-999.0,46,-99.99,,,0.00,weatherlink.com 1.10,2013-05-14 22:39:00,
2013-05-14 18:54:00,64.5,44.0,30.04,SW,229,2.0,-999.0,47,-99.99,,,0.00,weatherlink.com 1.10,2013-05-14 22:54:00,
2013-05-14 19:09:00,63.2,43.0,30.04,SSW,210,0.0,-999.0,48,-99.99,,,0.00,weatherlink.com 1.10,2013-05-14 23:09:00,
2013-05-14 19:24:00,62.0,43.0,30.04,SSW,192,0.0,-999.0,51,-99.99,,,0.00,weatherlink.com 1.10,2013-05-14 23:24:00,
2013-05-14 19:39:00,60.9,44.0,30.01,SSW,208,0.0,-999.0,54,-99.99,,,0.00,weatherlink.com 1.10,2013-05-14 23:39:00,
2013-05-14 19:54:00,59.9,43.0,30.01,South,169,2.0,-999.0,55,-99.99,,,0.00,weatherlink.com 1.10,2013-05-14 23:54:00,
2013-05-14 20:09:00,59.2,44.0,30.01,South,189,0.0,-999.0,57,-99.99,,,0.00,weatherlink.com 1.10,2013-05-15 00:09:00,
2013-05-14 20:24:00,58.4,43.0,30.01,SSW,198,0.0,-999.0,58,-99.99,,,0.00,weatherlink.com 1.10,2013-05-15 00:24:00,
2013-05-14 20:39:00,57.8,43.0,29.98,West,281,0.0,-999.0,59,-99.99,,,0.00,weatherlink.com 1.10,2013-05-15 00:39:00,
2013-05-14 20:54:00,57.5,44.0,29.98,East,97,0.0,-999.0,60,-99.99,,,0.00,weatherlink.com 1.10,2013-05-15 00:54:00,
2013-05-14 21:09:00,57.0,44.0,29.99,NW,326,0.0,-999.0,62,-99.99,,,0.00,weatherlink.com 1.10,2013-05-15 01:09:00,
2013-05-14 21:24:00,56.6,44.0,29.99,SSW,210,0.0,-999.0,63,-99.99,,,0.00,weatherlink.com 1.10,2013-05-15 01:24:00,
2013-05-14 21:39:00,56.2,44.0,29.96,North,349,0.0,-999.0,65,-99.99,,,0.00,weatherlink.com 1.10,2013-05-15 01:39:00,
2013-05-14 21:54:00,55.4,45.0,29.97,WNW,301,0.0,-999.0,68,-99.99,,,0.00,weatherlink.com 1.10,2013-05-15 01:54:00,
2013-05-14 22:09:00,54.8,44.0,29.98,NW,312,0.0,-999.0,67,-99.99,,,0.00,weatherlink.com 1.10,2013-05-15 02:09:00,
2013-05-14 22:24:00,54.1,44.0,29.98,NW,312,0.0,-999.0,69,-99.99,,,0.00,weatherlink.com 1.10,2013-05-15 02:24:00,
2013-05-14 22:39:00,53.9,44.0,29.97,NW,312,0.0,-999.0,69,-99.99,,,0.00,weatherlink.com 1.10,2013-05-15 02:39:00,
2013-05-14 22:54:00,53.2,44.0,29.98,NW,312,0.0,-999.0,71,-99.99,,,0.00,weatherlink.com 1.10,2013-05-15 02:54:00,
2013-05-14 23:09:00,52.9,44.0,29.98,NW,311,0.0,-999.0,72,-99.99,,,0.00,weatherlink.com 1.10,2013-05-15 03:09:00,
2013-05-14 23:24:00,52.3,44.0,29.98,NW,311,0.0,-999.0,74,-99.99,,,0.00,weatherlink.com 1.10,2013-05-15 03:24:00,
2013-05-14 23:40:00,52.0,44.0,29.97,NW,311,0.0,-999.0,74,-99.99,,,0.00,weatherlink.com 1.10,2013-05-15 03:40:00,
2013-05-14 23:54:00,51.9,44.0,29.96,NW,311,0.0,-999.0,75,-99.99,,,0.00,weatherlink.com 1.10,2013-05-15 03:54:00,